Voltar ao catálogo

STARLINK-30248

AtivoComunicaçõesVLEO
NORAD 57610·PAYLOAD·🇺🇸 United States

Lançado Aug 11, 2023 de Cape Canaveral Space Force Station

Loading…

Próximas Passagens (próximas 24 horas)

TLE

AtualizadoSource: CelesTrak SupGP

Época: Sep 15, 2026, 01:42 UTC

1 57610C 23119J   26258.07131944  .00038721  00000+0  14022-2 0  2586
2 57610  43.0032  91.6768 0001590 273.2715 108.0662 15.27565581    11

Acompanhe STARLINK-30248 em tempo real com AllMySat

Download on the App Store